Regional Weather Roundup
Issued by NWS Upton, NY

Current Version | Previous Version | Text Only | Print | Product List | Glossary On
Versions: 1 2 3 4 5 6 7 8 9 10 11 12 13 14 15 16 17 18 19 20 21 22 23 24 25 26 27
000
ASUS41 KOKX 211508
RWROKX

REGIONAL WEATHER ROUNDUP
NATIONAL WEATHER SERVICE NEW YORK NY
1100 AM EDT THU SEP 21 2017

NOTE: "FAIR" INDICATES FEW OR NO CLOUDS BELOW 12,000 FEET WITH NO
SIGNIFICANT WEATHER AND/OR OBSTRUCTIONS TO VISIBILITY.

NYZ071-072-176-178-NJZ106-104-211600-
NEW YORK CITY METRO AREA

CITY           SKY/WX    TMP DP  RH WIND       PRES   REMARKS
Central Park   CLOUDY    77  64  64 VRB7      30.05R
Bronx Bot Gard   N/A    N/A N/A N/A N2        30.03R
LaGuardia APRT CLOUDY    76  64  66 N12       30.01S
Kennedy INTL   CLOUDY    79  64  60 N13       30.01S
Breezy Point     N/A     75 N/A N/A N12G18      N/A
Newark/Liberty CLOUDY    76  63  64 N12       30.02S
Teterboro      CLOUDY    79  64  60 N12G18    30.01S
$$

NYZ177-179-078>081-211600-
LONG ISLAND NEW YORK

CITY           SKY/WX    TMP DP  RH WIND       PRES   REMARKS
Jones Beach      N/A     73 N/A N/A N15         N/A
Matinecock PT    N/A     75 N/A N/A N17         N/A
Farmingdale    CLOUDY    75  63  66 N15G26    30.00S
MacArthur/ISP  CLOUDY    74  63  68 N15G26    29.98R
Shirley        PTSUNNY   75  65  70 N16G24    29.99R
Mt Sinai Harb    N/A    N/A N/A N/A N15         N/A
Westhampton    CLOUDY    72  62  71 N14G22    29.98S
East Hampton   PTSUNNY   70  62  75 N10G21    29.95F
Montauk          N/A     71  64  78 N12G18    29.95S
$$

NYZ052-065-067-211600-
HUDSON VALLEY

CITY           SKY/WX    TMP DP  RH WIND       PRES   REMARKS
White Plains   PTSUNNY   75  63  66 N14G21    30.02S
Larchmont Harb   N/A     73 N/A N/A N15G22      N/A
Croton On Huds   N/A     81 N/A N/A N3G9        N/A
Newburgh       MOSUNNY   73  66  78 N14G21    30.07S
Montgomery     CLOUDY    74  65  73 N10       30.06S
Poughkeepsie   MOSUNNY   75  63  66 N12       30.05R
Albany         PTSUNNY   71  62  73 NE7       30.09S
$$

NJZ001-105-106-008-010-013-015-019>022-104-211600-
NEW JERSEY

CITY           SKY/WX    TMP DP  RH WIND       PRES   REMARKS
Newark/Liberty CLOUDY    76  63  64 N12       30.02S
Teterboro      CLOUDY    79  64  60 N12G18    30.01S
Caldwell       CLOUDY    74  66  76 N7        30.04S
Somerville     NOT AVBL
Linden         NOT AVBL
Perth Amboy      N/A     75 N/A N/A N12G17      N/A
Sussex         MOSUNNY   74  67  78 E3        30.06S
Andover          N/A     76  65  68 VRB3      30.07S
Trenton        SUNNY     80  65  59 N10       30.03S
Millville      SUNNY     83  67  58 N10       30.02S
Atlantic City  SUNNY     81  65  58 N16G24    30.01S
Wrightstown    SUNNY     80  65  61 N14       30.00S
Toms River     SUNNY     77  65  66 N12G21    30.02S
Belmar         CLOUDY    76  65  68 N13       30.03S
$$

PAZ047>061-062-071-211600-
EASTERN PENNSYLVANIA

CITY           SKY/WX    TMP DP  RH WIND       PRES   REMARKS
Philadelphia   MOSUNNY   82  64  54 N13       30.03F
Allentown      SUNNY     79  65  62 CALM      30.06S
Scranton       PTSUNNY   71  63  75 CALM      30.11S
$$

CTZ002-004>006-009-010-012-RIZ004-006-007-MAZ004-011-015-211600-
SOUTHERN NEW ENGLAND
 IN CT

CITY           SKY/WX    TMP DP  RH WIND       PRES   REMARKS
Bradley INTL   CLOUDY    77  62  59 N20       30.02F
Hartford       CLOUDY    73  63  70 N15G22    30.01S
Danbury        MOSUNNY   76  63  64 N15       30.05R
Wtrbury/Oxford MOSUNNY   72  62  71 NE13G20   30.04S
Norwalk Harbor   N/A     73 N/A N/A N17G23      N/A
Bridgeport     CLOUDY    75  62  64 N17G24    30.00R
Meriden        CLOUDY    74  61  63 N13G23    30.00S
New Haven      CLOUDY    75  62  64 N20       29.99S
Chester        FAIR      73  63  68 N12       29.99S
Groton         CLOUDY    72  61  68 N16G26    29.94S
Wilimantic     CLOUDY    73  62  68 NE14      30.00R

 IN RI

CITY           SKY/WX    TMP DP  RH WIND       PRES   REMARKS
Providence     CLOUDY    72  61  68 N23G37    29.98R
Block Island   CLOUDY    69  61  75 N22G35    29.93R
Westerly       CLOUDY    72  62  71 N15G26    29.95R
 IN MA

CITY           SKY/WX    TMP DP  RH WIND       PRES   REMARKS
Boston         PTSUNNY   68  55  63 N26G36    30.02R
Worcester      CLOUDY    66  58  75 NE12G25   30.05S
Westfield      CLOUDY    77  63  61 N21G28    30.03S
Provincetown   CLOUDY    62  55  77 N24G35    29.93R
Nantucket      LGT RAIN  63  63 100 N36G48    29.79R FOG
$$

ANZ330-335-338-340-345-350-353-355-211600-
COASTAL MARINE OBSERVATIONS


STATION/POSITION TIME  SKY/WX   TEMP    WIND        PRES    VSBY  WAVE
                                AIR SEA DIR/SP/G                  HT/PER
                 (UTC)          (F)     (DEG/KT/KT) (MB)    (MI)  (FT/S)
NY HARB ENTRANCE 1350            72 70  350/ 16/ 19 1014.7          4/ 9
20 S FIRE ISLAND 1350            70 67  340/ 14/ 17 1014.7          5/ 9
GREAT SOUTH BAY  1415            72 71  360/ 17/ 23   N/A
23 SSW MONTAUK P 1350            69 65              1013.0          6/ 8
15 E BARNEGAT LI 1430               69                N/A           5/ 9
HUDSON CANYON    1350            71 70  340/ 21/ 25 1012.3          7/10
KINGS POINT      1424            74 71   40/ 12/ 16 1017.2
EXECUTION ROCKS  1445            75      20/ 12/ 17   N/A
WESTERN LI SOUND NOT AVBL
CENTRAL LI SOUND 1430            71      20/ 14/ 17   N/A           2
EASTERN LI SOUND NOT AVBL
ROBBINS REEF     1430            74     350/ 14/ 17 1017.0
$$


>>>>>>>>>>>>>>>>>>>>>>>>>>>> KEY <<<<<<<<<<<<<<<<<<<<<<<<<<<
>                                                          <
>     SKY/WX - Sky Condition/Present Weather               <
>     TMP    - Temperature in Fahrenheit                   <
>     DP     - Dew Point in Fahrenheit                     <
>     RH     - Relative Humidity in Percent                <
>     WIND   - Direction (from) and Speed in MPH           <
>     PRES   - Mean Sea Level Pressure (inches of Hg)      <
>     WCI    - Wind Chill Index                            <
>     VSB    - VISIBILITY IN MILES                         <
>     HX     - HEAT INDEX                                  <
>     TC     - TEMPERATURE IN CELSIUS                      <
>     VRB    - VARIABLE WIND DIRECTION                     <
>                                                          <
>>>>>>>>>>>>>>>>>>>>>>>>>>>> KEY <<<<<<<<<<<<<<<<<<<<<<<<<<<




USA.gov is the U.S. government's official web portal to all federal, state and local government web resources and services.